Regional Weather Roundup
Issued by NWS State College, PA

Home | Current Version | Previous Version | Text Only | Print | Product List | Glossary On
Versions: 1 2 3 4 5 6 7 8 9 10 11 12 13 14 15 16 17 18 19 20 21 22 23 24 25 26 27 28 29 30 31 32 33 34 35 36 37 38 39 40 41 42 43 44 45 46 47 48 49 50
000
ASUS41 KCTP 161810
RWRCTP

REGIONAL WEATHER ROUNDUP
NATIONAL WEATHER SERVICE STATE COLLEGE PA
200 PM EDT WED AUG 16 2017

Note: "fair" indicates few or no clouds below 12,000 feet with no
significant weather and/or obstructions to visibility.

* = STATION THAT DOES NOT REPORT PRECIPITATION /E.G. RAIN...SNOW...ETC/
    THUNDER OR FOG.

PAZ002>004-007>009-013>016-020>023-029>032-161900-
WESTERN PENNSYLVANIA

CITY           SKY/WX    TMP DP  RH WIND       PRES   REMARKS
ERIE           SUNNY     76  60  57 N9        30.08F
MEADVILLE      MOSUNNY   79  58  48 N7        30.10F
FRANKLIN*      MOSUNNY   79  55  44 N9        30.10F
NEW CASTLE     FAIR      81  60  48 W7        30.09F
BEAVER COUNTY  SUNNY     82  59  44 NW6       30.09F
BUTLER*        MOSUNNY   82  61  47 NW9       30.08F
PITTSBURGH INT MOSUNNY   83  59  44 NW7       30.08F
PITTSBURGH     SUNNY     83  59  44 N8        30.07F
INDIANA*       SUNNY     81  61  50 NW8G14    30.11S
LATROBE        MOSUNNY   82  61  47 NW9       30.06F
WASHINGTON CO* MOSUNNY   82  63  51 CALM      30.08F
$$

PAZ004>006-010>012-017>019-024>028-033>037-041-042-045-046-049>053-161900-
CENTRAL PENNSYLVANIA

CITY           SKY/WX    TMP DP  RH WIND       PRES   REMARKS
BRADFORD       MOSUNNY   77  56  48 W5        30.10F
DUBOIS         SUNNY     79  54  41 N9G20     30.09S
CLEARFIELD     MOSUNNY   81  55  40 N6G16     30.08S
JOHNSTOWN      SUNNY     79  58  48 NW12      30.12S
ALTOONA        SUNNY     82  61  48 NW8       30.08S
STATE COLLEGE  MOSUNNY   81  61  50 NW7       30.06S
WILLIAMSPORT   MOSUNNY   86  62  44 W8        30.00S
SELINSGROVE    MOSUNNY   83  67  58 NW6       30.02S
FT INDIANTOWN  PTSUNNY   83  64  52 N8        30.01S
CAPITAL CITY   MOSUNNY   85  64  49 N8        30.01S
HARRISBURG     MOSUNNY   84  66  54 NW12      30.00S
YORK           MOSUNNY   84  68  58 N9        30.01F
$$

PAZ038>040-043-044-047-048-054-055-060>062-067>071-161900-
EASTERN PENNSYLVANIA

CITY           SKY/WX    TMP DP  RH WIND       PRES   REMARKS
SCRANTON       CLOUDY    78  63  59 NW7       30.03S
MOUNT POCONO   PTSUNNY   73  59  61 N10       30.06S
ALLENTOWN      SUNNY     86  63  45 VRB7      29.99R
QUAKERTOWN*    MOCLDY    82  66  57 N6        30.01R
READING        MOSUNNY   85  69  58 VRB3      29.99S
LANCASTER      MOSUNNY   84  70  62 VRB7      30.01S
COATESVILLE    CLOUDY    81  72  74 VRB7      30.03S
POTTSTOWN      MOSUNNY   83  68  60 NW7       30.01S
BLUE BELL      CLOUDY    82  70  65 W3        30.00S
DOYLESTOWN     CLOUDY    85  69  58 VRB3      29.98S
WILLOW GROVE   NOT AVBL
NORTH PHILA    MOSUNNY   87  68  52 W8        29.99S
PHILADELPHIA   PTSUNNY   86  67  52 VRB7      29.98S
$$




USA.gov is the U.S. government's official web portal to all federal, state and local government web resources and services.